FW2973 Cumberland RI US current weather conditions

sailwx.info

Wind from 281 at 1 knots gusting 4

Air temperature 26.1° C
Dewpoint 18.8° C

Last reported at 2020-Aug-09 14:05 UTC.
Time now 2020-Aug-09 14:43 UTC

Location: N 41°58' W 071°27'.
View on Google Maps.

See reports from other nearby stations

  
Tides and Currents Weather Stations Pressure Air Temp Water Temp Dewpoint Dewpoint Depression Visibility Wind Speed Wind Dir Waves Ship Positions
date/time (UTC)wind fromknots sea level pressurealtimeterstation pressurevisibilityair tempwater tempwave heightnotes
2020-Aug-09 14:05 281 1 gusting 4 26.1
2020-Aug-09 13:55 231 0 gusting 3 25.6
2020-Aug-09 13:45 252 1 gusting 6 25.0
2020-Aug-09 13:35 260 1 gusting 6 24.4
2020-Aug-09 13:25 277 0 gusting 5 24.4
2020-Aug-09 13:15 219 1 gusting 4 23.9
2020-Aug-09 13:05 249 0 gusting 4 23.3
2020-Aug-09 12:55 228 1 gusting 4 23.3
2020-Aug-09 12:45 297 22.8
2020-Aug-09 12:35 264 1 gusting 4 22.8
2020-Aug-09 12:25 271 0 gusting 3 22.2
2020-Aug-09 12:15 258 0 gusting 4 22.2
2020-Aug-09 12:05 262 1 gusting 3 21.7
2020-Aug-09 11:55 244 1 gusting 3 21.7
2020-Aug-09 11:45 218 0 gusting 4 21.1
2020-Aug-09 11:35 239 0 gusting 3 21.1
2020-Aug-09 11:25 251 0 gusting 3 20.6
2020-Aug-09 11:15 238 0 gusting 2 20.6
2020-Aug-09 11:05 201 0 gusting 2 20.0
2020-Aug-09 10:55 263 0 gusting 2 20.0
2020-Aug-09 10:45 240 20.0
2020-Aug-09 10:35 221 20.0
2020-Aug-09 10:25 262 20.0
2020-Aug-09 10:15 251 20.0
2020-Aug-09 10:05 279 20.0
2020-Aug-09 09:55 276 0 gusting 2 20.0
2020-Aug-09 09:45 215 20.0
2020-Aug-09 09:35 256 20.0
2020-Aug-09 09:25 282 0 gusting 2 20.0
2020-Aug-09 09:15 282 20.0
2020-Aug-09 09:05 274 0 gusting 3 20.0
2020-Aug-09 08:55 253 0 gusting 3 20.0
2020-Aug-09 08:45 244 0 gusting 3 20.0
2020-Aug-09 08:35 232 19.4
2020-Aug-09 08:25 283 0 gusting 2 19.4
2020-Aug-09 08:15 265 0 gusting 2 19.4
2020-Aug-09 08:05 253 0 gusting 1 19.4
2020-Aug-09 07:55 243 0 gusting 2 19.4
2020-Aug-09 07:45 251 0 gusting 2 20.0
2020-Aug-09 07:35 255 1 gusting 3 20.0
2020-Aug-09 07:25 263 0 gusting 3 20.0
2020-Aug-09 07:15 266 0 gusting 2 20.0
2020-Aug-09 07:05 266 0 gusting 2 20.0
2020-Aug-09 06:55 221 1 gusting 5 20.0
2020-Aug-09 06:45 253 1 gusting 4 20.0
2020-Aug-09 06:35 275 0 gusting 2 19.4
2020-Aug-09 06:25 213 0 gusting 3 19.4
2020-Aug-09 06:15 242 0 gusting 5 19.4
2020-Aug-09 06:05 243 0 gusting 4 19.4
2020-Aug-09 05:55 248 0 gusting 2 19.4
2020-Aug-09 05:45 265 0 gusting 2 19.4
2020-Aug-09 05:35 257 0 gusting 2 19.4
2020-Aug-09 05:25 258 0 gusting 2 19.4
2020-Aug-09 05:15 256 0 gusting 3 20.0
2020-Aug-09 05:05 258 0 gusting 4 20.0
2020-Aug-09 04:55 239 0 gusting 1 20.0
2020-Aug-09 04:45 256 20.0
2020-Aug-09 04:35 263 0 gusting 2 20.0
2020-Aug-09 04:25 271 0 gusting 2 20.0
2020-Aug-09 04:15 263 0 gusting 4 20.0
2020-Aug-09 04:05 206 20.0
2020-Aug-09 03:55 205 20.6
2020-Aug-09 03:45 272 0 gusting 4 20.6
2020-Aug-09 03:35 173 20.6
2020-Aug-09 03:25 269 0 gusting 3 20.6
2020-Aug-09 03:15 255 21.1
2020-Aug-09 03:05 268 0 gusting 3 21.1
2020-Aug-09 02:55 250 0 gusting 2 21.1
2020-Aug-09 02:45 261 1 gusting 3 21.1
2020-Aug-09 02:35 274 0 gusting 4 21.1
2020-Aug-09 02:25 234 21.7
2020-Aug-09 02:15 235 21.7
2020-Aug-09 02:05 270 0 gusting 3 21.7
2020-Aug-09 01:55 292 21.7
2020-Aug-09 01:45 257 0 gusting 3 21.7
2020-Aug-09 01:35 251 0 gusting 4 22.2
2020-Aug-09 01:25 140 22.2
2020-Aug-09 01:15 152 22.2
2020-Aug-09 01:05 241 22.8
2020-Aug-09 00:55 134 22.8
2020-Aug-09 00:45 172 0 gusting 2 23.3
2020-Aug-09 00:35 142 23.3
2020-Aug-09 00:25 23.9
2020-Aug-09 00:15 131 23.9
2020-Aug-09 00:05 064 24.4
2020-Aug-08 23:55 122 24.4
2020-Aug-08 23:45 086 25.0
2020-Aug-08 23:35 121 25.0
2020-Aug-08 23:25 117 25.6
2020-Aug-08 23:15 234 0 gusting 3 25.6
2020-Aug-08 23:05 118 26.1
2020-Aug-08 22:55 228 0 gusting 5 27.2
2020-Aug-08 22:45 267 1 gusting 5 27.8
2020-Aug-08 22:35 136 0 gusting 2 28.3
2020-Aug-08 22:25 234 0 gusting 4 28.9
2020-Aug-08 22:15 134 0 gusting 2 30.0
2020-Aug-08 22:05 121 0 gusting 2 30.0
2020-Aug-08 21:55 105 0 gusting 2 30.0
2020-Aug-08 21:45 150 0 gusting 3 30.0
2020-Aug-08 21:35 110 0 gusting 2 29.4
2020-Aug-08 21:25 091 1 gusting 2 29.4
2020-Aug-08 21:15 090 1 gusting 1 29.4
2020-Aug-08 21:05 101 0 gusting 2 29.4
2020-Aug-08 20:55 083 1 gusting 1 29.4
2020-Aug-08 20:45 091 0 gusting 1 30.0
2020-Aug-08 20:35 100 1 gusting 1 30.6
2020-Aug-08 20:25 174 0 gusting 3 30.0
2020-Aug-08 20:15 267 1 gusting 5 30.0
2020-Aug-08 20:05 206 1 gusting 4 30.0
2020-Aug-08 19:55 135 0 gusting 4 30.6
2020-Aug-08 19:45 159 0 gusting 3 30.0
2020-Aug-08 19:35 280 1 gusting 4 30.6
2020-Aug-08 19:25 133 1 gusting 4 30.6
2020-Aug-08 19:15 237 0 gusting 3 30.0
2020-Aug-08 19:05 092 0 gusting 2 30.0
2020-Aug-08 18:55 105 1 gusting 2 30.0
2020-Aug-08 18:45 119 0 gusting 3 29.4
2020-Aug-08 18:35 239 1 gusting 4 29.4
2020-Aug-08 18:25 280 1 gusting 6 29.4
2020-Aug-08 18:15 079 1 gusting 3 28.9
2020-Aug-08 18:05 082 1 gusting 2 28.9
2020-Aug-08 17:55 082 0 gusting 2 28.9
2020-Aug-08 17:45 097 0 gusting 2 28.3
2020-Aug-08 17:35 138 1 gusting 2 28.3
2020-Aug-08 17:25 310 1 gusting 4 28.3
2020-Aug-08 17:15 103 0 gusting 2 27.8
2020-Aug-08 17:05 088 1 gusting 2 27.2
2020-Aug-08 16:55 080 1 gusting 3 27.2
2020-Aug-08 16:45 131 1 gusting 4 27.2
2020-Aug-08 16:35 079 0 gusting 2 26.7
2020-Aug-08 16:25 068 1 gusting 3 26.1
2020-Aug-08 16:15 068 1 gusting 2 26.1
2020-Aug-08 16:05 070 0 gusting 3 26.1
2020-Aug-08 15:55 135 0 gusting 2 25.6
2020-Aug-08 15:45 078 1 gusting 2 25.0
2020-Aug-08 15:35 093 1 gusting 2 25.0
2020-Aug-08 15:25 097 0 gusting 1 24.4
2020-Aug-08 15:15 099 0 gusting 1 24.4
2020-Aug-08 15:05 071 0 gusting 2 23.9
2020-Aug-08 14:55 079 0 gusting 2 23.9
2020-Aug-08 14:45 068 0 gusting 1 23.9
2020-Aug-08 14:35 067 1 gusting 2 23.9
2020-Aug-08 14:25 074 0 gusting 1 23.9
2020-Aug-08 14:15 065 1 gusting 2 23.9
2020-Aug-08 14:05 085 1 gusting 2 23.3
2020-Aug-08 13:55 061 1 gusting 3 23.3
2020-Aug-08 13:45 057 1 gusting 3 22.8
2020-Aug-08 13:35 105 0 gusting 1 22.8
2020-Aug-08 13:25 064 0 gusting 1 22.2
2020-Aug-08 13:15 057 0 gusting 2 21.7
2020-Aug-08 13:05 21.7
2020-Aug-08 12:55 061 0 gusting 1 21.7
2020-Aug-08 12:45 065 0 gusting 1 21.1
2020-Aug-08 12:35 065 21.1
2020-Aug-08 12:25 052 0 gusting 2 20.6
2020-Aug-08 12:15 060 20.0
2020-Aug-08 12:05 064 0 gusting 1 20.0
2020-Aug-08 11:55 059 0 gusting 2 20.0
2020-Aug-08 11:45 062 0 gusting 1 20.0
2020-Aug-08 11:35 060 0 gusting 1 20.0
2020-Aug-08 11:25 059 0 gusting 2 19.4
2020-Aug-08 11:15 050 18.9
2020-Aug-08 11:05 221 18.3
2020-Aug-08 10:55 204 18.3
2020-Aug-08 10:45 18.3
2020-Aug-08 10:35 18.3
2020-Aug-08 10:25 18.3
2020-Aug-08 10:15 18.3
2020-Aug-08 10:05 18.3
2020-Aug-08 09:55 204 0 gusting 1 18.3
2020-Aug-08 09:45 18.3
2020-Aug-08 09:35 18.3
2020-Aug-08 09:25 18.3
2020-Aug-08 09:15 221 18.3
2020-Aug-08 09:05 18.3
2020-Aug-08 08:55 067 18.3
2020-Aug-08 08:45 18.3
2020-Aug-08 08:35 135 18.3
2020-Aug-08 08:25 049 18.3
2020-Aug-08 08:15 113 18.3
2020-Aug-08 08:05 18.3
2020-Aug-08 07:55 153 18.3
2020-Aug-08 07:45 18.3
2020-Aug-08 07:35 18.3
2020-Aug-08 07:25 256 18.3
2020-Aug-08 07:15 151 18.3
2020-Aug-08 07:05 18.3
2020-Aug-08 06:55 18.3
2020-Aug-08 06:45 170 18.3
2020-Aug-08 06:35 18.3
2020-Aug-08 06:25 309 18.3
2020-Aug-08 06:15 180 18.3
2020-Aug-08 06:05 18.3
2020-Aug-08 05:55 063 18.3
2020-Aug-08 05:45 18.3
2020-Aug-08 05:35 18.3
2020-Aug-08 05:25 18.3
2020-Aug-08 05:15 064 18.3
2020-Aug-08 05:06 18.3
2020-Aug-08 04:55 18.3
2020-Aug-08 04:45 18.3
2020-Aug-08 04:35 207 18.3
2020-Aug-08 04:25 18.3
2020-Aug-08 04:15 207 18.3
2020-Aug-08 04:05 18.3
2020-Aug-08 03:55 18.3
2020-Aug-08 03:45 18.9
2020-Aug-08 03:35 064 18.9
2020-Aug-08 03:25 18.9
2020-Aug-08 03:15 18.9
2020-Aug-08 03:05 19.4
2020-Aug-08 02:55 132 19.4
2020-Aug-08 02:45 073 19.4
2020-Aug-08 02:35 148 20.0
2020-Aug-08 02:25 050 20.0
2020-Aug-08 02:15 068 20.0
2020-Aug-08 02:05 066 20.0
2020-Aug-08 01:55 056 20.6
2020-Aug-08 01:45 102 20.6
2020-Aug-08 01:35 20.6
2020-Aug-08 01:25 139 21.1
2020-Aug-08 01:15 21.1
2020-Aug-08 01:05 099 21.7
2020-Aug-08 00:55 087 21.7
2020-Aug-08 00:45 093 21.7
2020-Aug-08 00:35 074 0 gusting 2 22.2
2020-Aug-08 00:25 069 1 gusting 1 22.2
2020-Aug-08 00:15 073 0 gusting 1 22.8
2020-Aug-08 00:05 072 0 gusting 1 22.8
2020-Aug-07 23:55 075 0 gusting 1 23.3
2020-Aug-07 23:45 076 1 gusting 2 23.9
2020-Aug-07 23:35 082 0 gusting 1 23.9
2020-Aug-07 23:25 071 1 gusting 1 23.9
2020-Aug-07 23:15 072 0 gusting 1 24.4
2020-Aug-07 23:05 085 0 gusting 0 24.4
2020-Aug-07 22:55 087 0 gusting 0 25.0
2020-Aug-07 22:45 084 25.0
2020-Aug-07 22:35 090 0 gusting 1 25.0
2020-Aug-07 22:25 085 25.6
2020-Aug-07 22:15 090 25.6
2020-Aug-07 22:05 087 0 gusting 0 25.6
2020-Aug-07 21:55 074 1 gusting 2 25.6
2020-Aug-07 21:45 080 0 gusting 1 26.1
2020-Aug-07 21:35 076 0 gusting 1 26.1
2020-Aug-07 21:25 073 0 gusting 1 26.1
2020-Aug-07 21:15 083 0 gusting 0 26.1
2020-Aug-07 21:05 108 0 gusting 2 26.7
2020-Aug-07 20:55 080 0 gusting 1 26.1
2020-Aug-07 20:45 079 0 gusting 1 25.6
2020-Aug-07 20:35 078 1 gusting 2 26.1
2020-Aug-07 20:25 087 1 gusting 1 26.1
2020-Aug-07 20:15 091 0 gusting 1 25.6
2020-Aug-07 20:05 109 0 gusting 1 25.6
2020-Aug-07 19:55 099 0 gusting 1 25.6
2020-Aug-07 19:45 084 1 gusting 2 25.6
2020-Aug-07 19:35 084 0 gusting 1 25.6
2020-Aug-07 19:25 081 0 gusting 1 25.6
2020-Aug-07 19:15 090 0 gusting 0 25.6
2020-Aug-07 19:05 075 1 gusting 1 25.6
2020-Aug-07 18:55 087 0 gusting 1 25.6
2020-Aug-07 18:45 075 0 gusting 2 25.6
2020-Aug-07 18:35 102 25.6
2020-Aug-07 18:25 089 0 gusting 1 25.6
2020-Aug-07 18:15 094 0 gusting 1 25.6
2020-Aug-07 18:05 100 0 gusting 1 25.6
2020-Aug-07 17:55 118 26.1
2020-Aug-07 17:45 086 0 gusting 1 25.6
2020-Aug-07 17:35 096 0 gusting 1 25.6
2020-Aug-07 17:25 106 0 gusting 1 25.6
2020-Aug-07 17:15 103 0 gusting 1 26.1
2020-Aug-07 17:05 103 0 gusting 2 26.1
2020-Aug-07 16:55 089 0 gusting 1 26.1
2020-Aug-07 16:45 065 1 gusting 2 25.6
2020-Aug-07 16:35 080 1 gusting 2 25.6
2020-Aug-07 16:25 071 1 gusting 2 25.0
2020-Aug-07 16:15 081 1 gusting 2 25.6
2020-Aug-07 16:05 080 0 gusting 1 25.6
2020-Aug-07 15:55 098 1 gusting 2 25.0
2020-Aug-07 15:45 085 0 gusting 2 24.4
2020-Aug-07 15:35 067 1 gusting 2 23.9
2020-Aug-07 15:25 060 1 gusting 4 23.9
2020-Aug-07 15:15 064 0 gusting 2 23.3
2020-Aug-07 15:05 070 0 gusting 2 22.8
2020-Aug-07 14:55 070 0 gusting 1 22.8
2020-Aug-07 14:45 069 0 gusting 2 22.8
2020-Aug-07 14:35 058 22.2
2020-Aug-07 14:25 066 0 gusting 1 22.2
2020-Aug-07 14:15 068 21.7
2020-Aug-07 14:05 066 21.7